Tracking 28799 objects as of 18-Apr-2024
HD Live streaming from Space Station
objects crossing your sky now

SL-16 R/B

Track SL-16 R/B now!
10-day predictions
SL-16 R/B is classified as:


NORAD ID: 25861
Int'l Code: 1999-039B
Perigee: 626.4 km
Apogee: 646.9 km
Inclination: 98.1 °
Period: 97.3 minutes
Semi major axis: 7007 km
RCS: 13.5291 m2 (large)
Launch date: July 17, 1999
Source: Commonwealth of Independent States (former USSR) (CIS)
Launch site: TYURATAM MISSILE AND SPACE COMPLEX (TTMTR)

Note: This is a ROCKET BODY
Your satellite tracking list
Your tracking list is empty




NASA's NSSDC Master Catalog

Two Line Element Set (TLE):
1 25861U 99039B   24108.85715521  .00001677  00000-0  22876-3 0  9990
2 25861  98.0953 154.3614 0014626 338.6380  21.4219 14.79946980334615
Source of the keplerian elements: AFSPC